Regional Weather Roundup
Issued by NWS Boston, MA

Home | Current Version | Previous Version | Text Only | Print | Product List | Glossary On
Versions: 1 2 3 4 5 6 7 8 9 10 11 12 13 14 15 16 17 18 19 20 21 22 23 24 25 26 27 28 29 30 31 32 33 34 35 36 37 38 39 40 41 42 43 44 45 46 47 48 49 50
093
ASUS41 KBOX 170710
RWRBOX

REGIONAL WEATHER ROUNDUP
NATIONAL WEATHER SERVICE TAUNTON MA
200 AM EST TUE JAN 17 2017

NOTE:  "FAIR" INDICATES FEW OR NO CLOUDS BELOW 12,000 FEET WITH NO
SIGNIFICANT WEATHER AND/OR OBSTRUCTIONS TO VISIBILITY.

MAZALL-170800-
EASTERN MASSACHUSETTS

CITY           SKY/WX    TMP DP  RH WIND       PRES   REMARKS
BOSTON         CLEAR     33  21  61 SW8       30.20S WCI  26
BEVERLY        CLEAR     32  19  58 W3        30.18S
LAWRENCE       PTCLDY    30  18  60 SW5       30.20S WCI  25
BEDFORD        CLOUDY    28  16  60 SW3       30.18F
BLUE HILL        N/A     31  19  61 W14       30.16F WCI  21
NORWOOD        CLOUDY    33  20  58 SW3       30.20S
MARSHFIELD     CLEAR     34  23  64 W7        30.19F WCI  28
PLYMOUTH       CLOUDY    32  23  69 W8        30.20F WCI  25
TAUNTON        PTCLDY    33  24  69 SW3       30.21S
NEW BEDFORD    CLOUDY    35  26  69 W5        30.21S WCI  31
$$

MAZALL-170800-
CAPE COD AND THE ISLANDS

CITY           SKY/WX    TMP DP  RH WIND       PRES   REMARKS
FALMOUTH       PTCLDY    32  28  86 MISG      30.22S
HYANNIS        CLOUDY    35  26  69 W9        30.19S WCI  28
CHATHAM        CLEAR     36  26  67 W5        30.21F
PROVINCETOWN   CLEAR     37  27  67 W14       30.20S WCI  28
NANTUCKET      CLOUDY    40  31  70 W14       30.22S
MARTHAS VNYRD  CLOUDY    40  32  73 W10       30.21F
$$

MAZALL-170800-
CENTRAL AND WESTERN MASSACHUSETTS

CITY           SKY/WX    TMP DP  RH WIND       PRES   REMARKS
WORCESTER      CLOUDY    31  17  56 W13       30.16S WCI  21
FITCHBURG      CLOUDY    36  18  48 NW6       30.18F WCI  31
ORANGE         PTCLDY    21  18  88 CALM      30.21S
SPRINGFIELD    CLOUDY    29  23  75 CALM      30.21F
WESTFIELD      CLOUDY    30  24  78 CALM      30.22F
NORTH ADAMS    CLOUDY    18  15  88 CALM      30.23S
PITTSFIELD     CLOUDY    25  19  78 CALM      30.19S
$$

RIZALL-170800-
RHODE ISLAND

CITY           SKY/WX    TMP DP  RH WIND       PRES   REMARKS
PROVIDENCE     PTCLDY    35  25  66 SW3       30.23S
NEWPORT        CLOUDY    36  29  75 W3        30.22S
SMITHFIELD     MOCLDY    32  22  66 VRB3      30.21R
WESTERLY       CLOUDY    39  28  64 VRB6      30.24S
$$

CTZALL-170800-
CONNECTICUT

CITY           SKY/WX    TMP DP  RH WIND       PRES   REMARKS
BRADLEY INTL   CLOUDY    31  23  72 CALM      30.23F
HARTFORD       CLOUDY    33  26  75 CALM      30.24F
BRIDGEPORT     CLOUDY    39  28  64 W5        30.25S
DANBURY        CLOUDY    36  25  64 W3        30.24F
GROTON         CLOUDY    38  29  70 W8        30.23F
NEW HAVEN      CLOUDY    37  30  75 SW3       30.25S
CHESTER        MOCLDY    36  27  69 VRB5      30.23S WCI  32
MERIDEN        CLOUDY    34  28  79 SE3       30.24F
WILLIMANTIC    CLOUDY    31  26  82 CALM      30.23F
OXFORD         CLOUDY    36  23  60 W5        30.22F WCI  32
$$

MEZ002-015-021-024-NHZ003-005-008-011-012-014-VTZ005-008-170800-
NORTHERN NEW ENGLAND

CITY           SKY/WX    TMP DP  RH WIND       PRES   REMARKS
PORTLAND ME    PTCLDY    26  16  65 CALM      30.16R
BANGOR ME      CLOUDY    29  16  58 W3        30.13R
CONCORD NH     CLEAR     19  14  81 CALM      30.17S
MANCHESTER NH  NOT AVBL
NASHUA NH      NOT AVBL
PORTSMOUTH NH  PTCLDY    31  16  53 W8        30.15R WCI  24
JAFFREY NH     NOT AVBL
KEENE NH       NOT AVBL
BURLINGTON VT  CLEAR     23  16  74 CALM      30.22R
MT. WASHINGTON PTCLDY    12   9  85 NW56        N/A  WCI -15
$$

NYZ052-076-170800-
EASTERN NEW YORK

CITY           SKY/WX    TMP DP  RH WIND       PRES   REMARKS
ALBANY         CLOUDY    22  17  81 CALM      30.25R
NEW YORK CITY  CLOUDY    42  26  53 SW7       30.26F
$$

ANZALL-170800-
MARINE OBSERVATIONS

STATION/POSITION TIME  TEMP    WIND        PRES    VSBY  WAVE
                       AIR SEA DIR/SP/G                  HT/PER
                 (UTC) (F)     (DEG/KT/KT) (MB)    (MI)  (FT/S)
BOSTON BUOY      0550   38 45  240/ 17/ 19 1021.5          2/ 4
BUZZARDS BAY     0600   40     270/ 16/ 18 1023.9F
NANTUCKET SOUND  0550   40 39  250/ 16/ 17 1023.0          2/ 3
MASS BAY-STELLWA 0604   39 44  260/ 16/ 19 1021.6R  1 7/8  2/ 4
ISLE OF SHOALS   0600   37     260/ 18/ 20 1020.8F
S OF BLOCK IS    0655      45                N/A           4/ 5
$$

......................KEY.........................
  SKY/WX - SKY CONDITION/PRESENT WEATHER
  TMP    - TEMPERATURE IN FAHRENHEIT
  DWPT   - DEWPOINT IN FAHRENHEIT
  RH     - RELATIVE HUMIDITY IN PERCENT
  WIND   - DIRECTION AND SPEED IN MPH
  PRES   - MEAN SEA LEVEL PRESSURE IN INCHES OF HG
  WCI    - WIND CHILL INDEX
  VSB    - VISIBILITY IN MILES
  HX     - HEAT INDEX
  TC     - TEMPERATURE IN CELSIUS
  VRB    - VARIABLE WIND DIRECTION
  N/A    - NOT AVAILABLE




USA.gov is the U.S. government's official web portal to all federal, state and local government web resources and services.